GOES 3

Satellite information

Favourite Embed

Satellite Type and Status

PAYLOADIN ORBIT

Key statistics

Satellite GOES 3 at a glance.

Uptime

17297

Days in orbit

Revolutions

≈ 1.0

Per day

Orbit

OTHER

Other

Inclination

7.4

Latest

Satellite identification and parameters

Extended collection of information and parameters for GOES 3.

Object identification

Identified? True

Debris? False

Object name: GOES 3

International designator: 1978-062A

Object number (NORAD): 10953

Object ID (CCSDS): 10953

Country: UNITED STATES OF AMERICA (US)

Current information (Y/N): Y

RCS size: LARGE

Orbital parameters

Period: 1449.283 minutes

Inclination: 7.4422 deg

SMA: 42422.449 km

Apoapsis: 36056.697 km

Periapsis: 36031.931 km

RAAN: 300.9721 deg

Eccentricy: 0.0002919

Argument of periapsis: 290.5441 deg

Mean anomaly: 92.0743 deg

Mean motion: 0.99359444 rev/day

Mean motion (dot): 0.0000009 rev/day2

B* drag term: 0.0 1/REarth

Two-line elements (TLE)

Creation date: Oct. 23, 2025, 10:16 p.m.

Reference frame: TEME

Reference center: EARTH

Epoch: Oct. 23, 2025, 3:59 a.m. UTC

TLE line 0: 0 GOES 3

TLE line 1: 1 10953U 78062A 25296.16643406 .00000090 00000-0 00000+0 0 9993

TLE line 2: 2 10953 7.4422 300.9721 0002919 290.5441 92.0743 0.99359444126187

Live tracking on map

Real-time ground track for satellite GOES 3.

In-orbit conjunctions

There are no conjunctions computed for GOES 3, at the moment. Check back to stay up to date, as we update our databases every day.

Go to all conjunctions

Associated space launch

Geostationary meteorological satellite

GOES 3 was lifted into orbit during the mission ‘Delta 2914 | GOES 3’, on board a Delta 2914 space rocket.

The launch took place on June 16, 1978, 10:49 a.m. from Space Launch Complex 17B.

For more information about the launch, click the button.

Launch to space Delta 2914 | GOES 3
Delta 2914 | GOES 3

Agency: N/A

Status: Launch Successful

Launch date: June 16, 1978, 10:49 a.m. UTC

Rocket: Delta 2914

Launch pad: Space Launch Complex 17B

Location: Cape Canaveral SFS, FL, USA

...

Latest news about this satellite

There are no fresh news available about this satellite. Check back as we update our databases every day.


Newsletter sign-up

Weekly statistics, charts and insights to help you stay on top of the space industry.